Flag for United Kingdom Weather past 2 weeks in Cheltenham, England, United Kingdom

Now
75 °F

Scattered showers. Scattered clouds.


Feels Like: 78 °F
Forecast: 53 / 75 °F
Wind: 6 mph from Northwest

Location: Staverton Private

Current Time: Jul 28, 2014 at 6:06:26 PM

Latest Report: Jul 28, 2014 at 5:20 PM


Visibility: N/A

Pressure: 30.01 "Hg

Humidity: 41%

Dew point: 50 °F

Location of CheltenhamLocation

Historic Weather in Cheltenham — Graph

°F

Cheltenham temperature yesterday

Maximum temperature yesterday: 73 °F (at 1:50 PM)
Minimum temperature yesterday: 64 °F (at 8:20 AM)
Average temperature yesterday: 71 °F

Past Weeks' High & Low Weather Summary

 TemperatureHumidityPressure
High82 °F (Jul 23, 4:50 PM)94% (Jul 19, 9:20 AM)30.24 "Hg (Jul 19, 9:20 AM)
Low55 °F (Jul 14, 6:50 AM)32% (Jul 26, 3:20 PM)29.71 "Hg (Jul 19, 3:50 PM)
Average72 °F57%30.02 "Hg
* Reported Jul 13 4:20 PM — Jul 28 4:50 PM, Cheltenham, Weather by CustomWeather, © 2014

Note: Actual official high and low records may vary slightly from our data, if they occured in-between our weather recording intervals... More about our weather records

Advertising

Cheltenham weather history for previous 24 hours

 ConditionsComfort  
Time TempWeatherWind HumidityBarometerVisibility
4:50 PM
Jul 28
75 °FScattered clouds.6 mph44%30.01 "HgN/A
4:20 PM73 °FScattered clouds.6 mph38%30.01 "HgN/A
3:50 PM75 °FScattered clouds.5 mph34%30.01 "HgN/A
3:20 PM75 °FScattered clouds.6 mph36%30.01 "HgN/A
2:50 PM75 °FScattered clouds.7 mph34%30.01 "HgN/A
2:20 PM75 °FScattered clouds.5 mph34%30.01 "HgN/A
1:50 PM73 °FScattered clouds.5 mph41%30.01 "HgN/A
1:20 PM72 °FScattered clouds.5 mph47%30.01 "HgN/A
12:50 PM72 °FScattered clouds.3 mph47%30.01 "HgN/A
12:20 PM70 °FScattered clouds.5 mph50%30.01 "HgN/A
11:50 AM68 °FPassing clouds.5 mph56%30.01 "HgN/A
11:20 AM68 °FPassing clouds.5 mph56%30.01 "HgN/A
10:50 AM68 °FPassing clouds.5 mph53%30.01 "HgN/A
10:20 AM66 °FPassing clouds.3 mph56%30.01 "HgN/A
9:50 AM66 °FPassing clouds.3 mph60%30.01 "HgN/A
8:50 AM63 °FPassing clouds.3 mph68%30.01 "HgN/A
8:20 AM63 °FSunny.2 mph68%30.01 "Hg10 mi
7:50 AM63 °FSunny.No wind68%30.01 "Hg10 mi
6:50 AM57 °FSunny.No wind77%30.01 "Hg10 mi
7:20 PM
Jul 27
72 °FScattered clouds.7 mph47%30.01 "HgN/A
6:50 PM72 °FScattered clouds.6 mph44%30.01 "HgN/A
6:20 PM72 °FScattered clouds.7 mph44%30.01 "HgN/A
Weather by CustomWeather, © 2014

See weather overviewHow to use our weather pages